Regional Weather Roundup
Issued by NWS Bismarck, ND

Home | Current Version | Previous Version | Text Only | Print | Product List | Glossary On
Versions: 1 2 3 4 5 6 7 8 9 10 11 12 13 14 15 16 17 18 19 20 21 22 23 24 25 26 27 28 29 30 31 32 33 34 35 36 37 38 39 40 41 42 43 44 45 46 47 48 49 50
000
ASUS43 KBIS 010002
RWRBIS

NWR BROADCAST TEXT
NATIONAL WEATHER SERVICE BISMARCK ND
700 PM CDT SAT APR 30 2016

NOTE: "FAIR" INDICATES FEW OR NO CLOUDS BELOW 12,000 FEET WITH NO
SIGNIFICANT WEATHER AND/OR OBSTRUCTIONS TO VISIBILITY.


CITY           SKY/WX    TMP DP  RH WIND       PRES   REMARKS
WILLISTON      MOSUNNY   63  29  27 E8        30.25S
MINOT          SUNNY     65  24  21 NE15G21   30.24R
MINOT AFB      SUNNY     62  27  26 E10       30.23R
BISMARCK       MOSUNNY   58  29  33 NE12G22   30.20R
DICKINSON      MOSUNNY   53  27  36 NE14      30.21R
GARRISON         N/A     59  24  26 NE9       30.23R
HETTINGER ARPT CLOUDY    56  26  31 NE18      30.20R
JAMESTOWN      CLOUDY    58  23  26 NE21      30.18R
CARRINGTON     FAIR      59  28  31 NE16G23   30.23R
HAZEN          FAIR      57  25  28 E13G23    30.25R
OAKES            N/A    N/A N/A N/A MISG        N/A
STANLEY        FAIR      59  27  29 E10G16    30.27S
$$

CITY           SKY/WX    TMP DP  RH WIND       PRES   REMARKS
GRAND FORKS    MOSUNNY   58  27  30 NE17      30.22R
GRAND FORKS AF SUNNY     58  26  28 E13G24    30.22S
DEVILS LAKE    SUNNY     59  29  31 NE16      30.23S
FARGO          CLOUDY    61  25  25 NE20G30   30.14R
CAVALIER       FAIR      59  28  31 NE15G23   30.24S
GRAFTON        FAIR      61  30  31 E17G24    30.24S
GWINNER        FAIR      59  30  33 NE18      30.13R
LANGDON        FAIR      59  28  31 NE20      30.25R
$$

CITY           SKY/WX    TMP DP  RH WIND       PRES   REMARKS
ABERDEEN       PTSUNNY   58  31  35 NE17G26   30.10R
MOBRIDGE       PTSUNNY   58  30  34 NE18G24   30.11R
BUFFALO          N/A     56  29  35 NE23G29   30.13R
RAPID CITY     CLOUDY    50  31  48 NE20G29   30.12R
GLASGOW        MOSUNNY   62  28  27 SE9G17    30.26R
SIDNEY         SUNNY     61  28  29 NE9       30.26R
WOLF POINT     SUNNY     63  28  26 SE10      30.26R
GLENDIVE       PTSUNNY   59  30  33 NE10      30.26R
MILES CITY     MOSUNNY   60  31  33 NE9       30.22R
BAKER          CLOUDY    54  30  40 E12       30.23R
$$

CITY           SKY/WX    TMP DP  RH WIND       PRES   REMARKS
BILLINGS       CLOUDY    53  33  46 E9        30.24R
GREAT FALLS    CLOUDY    53  35  50 E9        30.26R
$$




USA.gov is the U.S. government's official web portal to all federal, state and local government web resources and services.